Showing default

KANOPUS-V 6, 43877

Orbit data source: Space-Track

KANOPUS-V 6, 43877 is a payload satellite owned by VNIIEM (CIS) in SSO that was launched on Thu, 27 Dec 2018 UTC via a SOYUZ-2-1A launch vehicle from the Vostochny Cosmodrome (VOSTO). Payload-class satellites include a variety of spacecraft equipped with specific instruments for various scientific and technological missions. These include communications satellites like Starlink; space stations such as the ISS; scientific satellites like the Hubble; Earth observation satellites from companies like Planet Labs, Umbra, and HawkEye 360; GPS; miniature CubeSats for education and research; and military/defense satellites.

Loading next visibility...
Identifier
43877, 2018-111B
Orbit
SSO
Last TLE update
5 hours ago
Origin
Manufacturer
VNIIEM
Mission
Operational Civil Imaging
Bus & Motor
KANOPUS, Unknown motor
Mass
473 kg wet, 473 kg dry
Launch date (UTC)
2018-12-27 (7 years ago)
Launch vehicle
SOYUZ-2-1A
Launch site
Vostochny Cosmodrome (VOSTO)
Object type
Payload
Rocket body
Debris
Shape & HBR
Box + 2 Pan, 6 m
Radar Cross Section
1.665 m², Large (>1 m²)

Expand to show TLE details & history

TLE from 5 hours ago
0 KANOPUS-V 6
1 43877U 18111B   25182.18743925  .00003841  00000-0  12572-3 0  9994
2 43877  97.3798  93.6732 0002205  90.6681 269.4813 15.32290091359599
Epoch: 2025-07-01T04:29Z
TLE epoch observation values (Epoch: 2025-07-01T04:29:54.751Z)
Latitude
-0.00006°
Longitude
106.70859°
Altitude
472.103 km
Speed
7.63 km/s
True Right ascension
06h 14m 41s
True Declination
0° 00' 00"
Sunlit
Object was in daylight at epoch
Visualization orbit readout
Latitude
-1.82471°
Longitude
107.13862°
Altitude
472.384 km
Speed
7.63 km/s
Apparent Right ascension
07h 19m 53s
Apparent Declination
-21° 05' 53"
Sunlit
Object is in daylight
Visualization observer readout
Local Sidereal Time
20:49:47
Azimuth
52.153° ENE
Elevation
-63.152°
Doppler factor
1
Orbital elements
Apogee altitude
467.439 km
Perigee altitude
464.421 km
Semi-major axis
6,844.067 km
Eccentricity
0.00022
Inclination
97.3798°
RAAN
93.6732°
Arg. of periapsis
90.6681°
True anomaly
Unknown
Mean anomaly
269.4813°
Eccentric anomaly
Unknown
Mean motion
3.83329 °/min
Orbital period
93.91 mins
BSTAR
0.00012572
Loading maneuver chart data...
Loading SW <> Apogee altitude chart data...
Loading historical data...
Loading historical data...
Loading historical data...
Loading historical data...
Loading historical data...
Loading historical data...
Loading historical data...

KANOPUS-V 6 Visibility forecast

Observer location: undefined°, undefined°

Span
Click to sort rows by Start time (UTC) header in descending order
Start Az.
Max El. time (UTC)
Max El. Az.
Max El.
End time (UTC)
End Az.
4 mins2025-07-01 18:44:32.886Z213.816° SW2025-07-01 18:46:32.886Z265.992° W25.699°2025-07-01 18:48:32.886Z314.629° NW
|